DateTimeUTC,F1_A11,F1_S11,BsB_S11,BsG_S11,BsR_S11,BbsB_S11,BbsG_S11,BbsR_S11,BaB_A11,BaG_A11,BaR_A11,Tu_S11,T_S11,Uu_S11,U_S11,P_S11,T1_A11
2021-10-22T01:00:00Z,00000200,21000000,,,,,,,0000.04,-000.37,0000.03,17.0,24.1,,00.0,0650.8,30.9
2021-10-22T01:01:00Z,00000200,21000000,,,,,,,-000.54,-000.15,0000.11,16.9,24.0,,00.0,0650.8,30.9
2021-10-22T01:02:00Z,00000200,21000000,,,,,,,-000.04,-000.05,-000.14,16.9,24.0,,00.0,0650.8,30.9
2021-10-22T01:03:00Z,00000200,61000000,,,,,,,0000.19,0000.18,0000.10,16.9,24.1,,00.0,0650.8,31.0
2021-10-22T01:04:00Z,00000200,41000000,0001.54,0001.09,0000.83,0000.40,0000.29,-000.08,0000.40,0000.53,0000.30,17.2,23.9,,00.0,0651.7,31.0
2021-10-22T01:05:00Z,00000200,01000000,0001.50,0001.47,0000.72,0000.28,-000.02,0000.04,-000.06,-000.31,-000.29,17.3,23.9,,00.0,0651.8,31.0
2021-10-22T01:06:00Z,00000200,01000000,0002.15,0001.26,0000.64,0001.02,-000.06,0000.28,0000.32,0000.40,0000.33,17.3,23.9,,00.0,0651.8,31.0
2021-10-22T01:07:00Z,00000200,01000000,0001.83,0001.18,0000.84,0000.29,0000.03,-000.22,0000.42,0000.28,0000.49,17.2,23.9,,00.0,0651.7,30.9
2021-10-22T01:08:00Z,00000200,01000000,0002.11,0001.18,0000.56,0000.78,-000.04,-000.14,0000.17,0000.20,0000.20,17.1,23.8,,00.0,0651.7,30.9
2021-10-22T01:09:00Z,00000200,01000000,0001.73,0001.14,0000.74,0000.08,0000.26,-000.07,0000.44,0000.12,0000.00,17.0,23.8,,00.0,0651.7,30.9
2021-10-22T01:10:00Z,00000200,01000000,0002.52,0001.36,0000.46,0000.56,0000.21,0000.17,0000.01,-000.09,-000.40,16.9,23.7,,00.0,0651.7,30.9
2021-10-22T01:11:00Z,00000200,01000000,0002.33,0001.39,0000.83,0000.85,-000.18,0000.12,-000.06,0000.08,-000.19,16.8,23.7,,00.0,0651.8,30.9
2021-10-22T01:12:00Z,00000200,01000000,0002.29,0001.30,0000.75,0000.70,0000.27,0000.19,-000.83,-000.91,-000.12,16.8,23.6,,00.0,0651.8,30.8
2021-10-22T01:13:00Z,00000200,01000000,0001.94,0001.10,0001.03,0000.57,-000.08,0000.17,-000.06,-000.13,0000.06,16.7,23.6,,00.0,0651.8,30.8
2021-10-22T01:14:00Z,00000200,01000000,0001.96,0001.54,0000.71,0000.95,0000.05,0000.30,0000.36,0000.69,0000.18,16.6,23.5,,00.0,0651.7,30.9
2021-10-22T01:15:00Z,00000200,01000000,0001.34,0001.60,0000.81,0001.06,0000.00,-000.07,0000.93,0001.15,0000.85,16.6,23.5,,00.0,0651.7,30.9
2021-10-22T01:16:00Z,00000200,01000000,0001.65,0001.10,0001.12,0000.77,-000.06,0000.01,0001.41,0000.63,0000.56,16.6,23.5,,00.0,0651.7,30.9
2021-10-22T01:17:00Z,00000200,01000000,0001.38,0001.39,0000.62,0000.35,0000.06,0000.31,0000.44,0000.53,0000.54,16.6,23.5,,00.0,0651.7,30.9
2021-10-22T01:18:00Z,00000200,01000000,0002.06,0001.70,0001.13,0000.61,0000.07,-000.07,0000.56,0000.57,0000.37,16.6,23.5,,00.0,0651.7,30.9
2021-10-22T01:19:00Z,00000200,01000000,0002.11,0001.45,0001.02,0000.75,0000.26,-000.19,0000.49,0000.67,0000.36,16.7,23.5,,00.0,0651.7,30.9
2021-10-22T01:20:00Z,00000200,01000000,0001.81,0001.44,0000.84,0000.98,0000.11,0000.07,0000.74,0000.36,0000.59,16.7,23.5,,00.0,0651.7,30.9
2021-10-22T01:21:00Z,00000200,01000000,0001.58,0001.45,0000.35,0000.46,0000.14,-000.17,0000.19,0000.52,0000.25,16.8,23.5,,00.0,0651.7,30.9
2021-10-22T01:22:00Z,00000200,01000000,0002.49,0001.39,0000.69,0000.38,0000.52,-000.07,0000.67,0000.59,0000.31,16.8,23.5,,00.0,0651.7,31.0
2021-10-22T01:23:00Z,00000200,01000000,0002.00,0001.86,0000.74,0000.40,0000.35,0000.18,0000.49,0000.36,0000.33,16.9,23.5,,00.0,0651.7,30.9
2021-10-22T01:24:00Z,00000200,01000000,0002.11,0001.32,0000.74,0000.33,-000.13,0000.08,0000.85,0000.64,0000.39,16.9,23.6,,00.0,0651.7,30.9
2021-10-22T01:25:00Z,00000200,01000000,0002.59,0001.74,0000.62,0000.89,0000.06,-000.10,0000.52,0000.55,0000.48,16.9,23.6,,00.0,0651.7,30.9
2021-10-22T01:26:00Z,00000200,01000000,0001.99,0001.62,0000.80,0000.70,-000.03,-000.15,0000.63,0000.62,0000.61,17.0,23.6,,00.0,0651.7,31.0
2021-10-22T01:27:00Z,00000200,01000000,0002.30,0001.55,0001.03,0000.47,-000.16,0000.03,0000.21,0000.44,0000.10,17.0,23.6,,00.0,0651.7,30.9
2021-10-22T01:28:00Z,00000200,01000000,0001.54,0001.12,0000.72,0000.75,0000.24,-000.21,0000.69,0000.08,0000.40,17.1,23.6,,00.0,0651.7,31.0
2021-10-22T01:29:00Z,00000200,01000000,0001.78,0001.32,0000.74,0000.37,0000.37,0000.03,0000.26,0000.40,0000.18,17.1,23.6,,00.0,0651.7,31.0
2021-10-22T01:30:00Z,00000200,01000000,0001.73,0001.79,0000.77,0000.46,0000.19,0000.30,0000.40,0000.57,0000.15,17.2,23.6,,00.0,0651.7,31.0
2021-10-22T01:31:00Z,00000200,01000000,0001.40,0001.16,0000.74,0000.62,0000.29,0000.15,0000.13,0000.37,0000.09,17.2,23.7,,00.0,0651.8,31.0
2021-10-22T01:32:00Z,00000200,01000000,0001.71,0001.51,0000.87,0000.71,0000.27,0000.18,0000.14,-000.12,0000.06,17.2,23.7,,00.0,0651.8,31.0
2021-10-22T01:33:00Z,00000200,01000000,0001.63,0001.54,0000.75,0000.81,0000.15,0000.09,0000.07,0000.27,0000.25,17.3,23.7,,00.0,0651.8,31.0
2021-10-22T01:34:00Z,00000200,01000000,0001.38,0001.55,0001.09,0000.99,0000.10,0000.11,0000.49,0000.27,0000.56,17.3,23.7,,00.0,0651.8,31.0
2021-10-22T01:35:00Z,00000200,01000000,0002.16,0001.30,0000.91,0001.13,0000.13,-000.20,0000.26,0000.33,0000.13,17.4,23.7,,00.0,0651.9,31.0
2021-10-22T01:36:00Z,00000200,01000000,0001.77,0001.52,0000.67,0000.76,-000.07,0000.07,0000.75,0000.55,0000.23,17.4,23.8,,00.0,0651.9,31.0
2021-10-22T01:37:00Z,00000200,01000000,0002.32,0001.36,0001.38,0000.56,0000.12,0000.20,0000.14,0000.44,0000.68,17.4,23.8,,00.0,0651.9,31.0
2021-10-22T01:38:00Z,00000200,01000000,0002.43,0001.66,0000.86,0000.19,0000.48,-000.12,0000.60,0000.20,-000.09,17.5,23.8,,00.0,0651.9,31.0
2021-10-22T01:39:00Z,00000200,01000000,0001.06,0001.65,0000.64,0000.80,0000.25,-000.02,0000.51,0000.37,0000.25,17.4,23.8,,00.0,0651.9,31.0
2021-10-22T01:40:00Z,00000200,01000000,0001.54,0001.01,0000.85,0000.97,0000.04,-000.14,0000.39,0000.40,0000.32,17.4,23.8,,00.0,0651.9,31.0
2021-10-22T01:41:00Z,00000200,01000000,0001.34,0001.15,0000.79,0000.74,0000.30,-000.24,0000.12,0000.45,0000.09,17.3,23.8,,00.0,0651.9,30.9
2021-10-22T01:42:00Z,00000200,01000000,0001.75,0001.35,0000.86,0000.83,0000.17,0000.12,0001.02,0000.34,0000.45,17.2,23.7,,00.0,0651.9,30.9
2021-10-22T01:43:00Z,00000200,01000000,0001.46,0001.41,0000.74,0000.68,0000.38,0000.20,0000.27,0000.40,0000.41,17.1,23.7,,00.0,0651.9,30.9
2021-10-22T01:44:00Z,00000200,01000000,0001.81,0001.37,0000.82,0000.05,0000.02,0000.05,0000.44,0000.14,-000.17,17.0,23.6,,00.0,0651.8,30.9
2021-10-22T01:45:00Z,00000200,01000000,0002.29,0001.24,0000.85,0000.64,0000.23,0000.06,0000.49,0000.69,0000.56,17.0,23.6,,00.0,0651.8,30.9
2021-10-22T01:46:00Z,00000200,01000000,0001.91,0001.68,0000.60,0000.56,0000.35,0000.01,0000.47,0000.51,0000.63,17.0,23.6,,00.0,0651.8,30.9
2021-10-22T01:47:00Z,00000200,01000000,0001.79,0001.29,0000.76,0001.30,0000.00,0000.28,0000.61,0000.24,0000.45,17.0,23.6,,00.0,0651.8,30.9
2021-10-22T01:48:00Z,00000200,01000000,0001.59,0001.31,0000.71,0001.02,0000.17,0000.24,0000.54,0000.20,0000.24,17.0,23.6,,00.0,0651.8,30.9
2021-10-22T01:49:00Z,00000200,01000000,0001.48,0001.19,0000.70,0000.06,0000.17,-000.14,0000.24,0001.09,-000.11,17.0,23.6,,00.0,0651.8,30.9
2021-10-22T01:50:00Z,00000200,01000000,0002.52,0001.33,0000.70,-000.09,0000.02,0000.48,0000.51,0000.17,0000.66,17.1,23.6,,00.0,0651.8,30.9
2021-10-22T01:51:00Z,00000200,01000000,0001.81,0001.24,0000.97,0000.84,0000.33,-000.11,0000.38,0000.42,0000.47,17.1,23.6,,00.0,0651.8,30.9
2021-10-22T01:52:00Z,00000200,01000000,0001.44,0001.63,0000.88,0000.75,0000.11,-000.02,0000.77,0000.25,0000.55,17.1,23.6,,00.0,0651.8,30.9
2021-10-22T01:53:00Z,00000200,01000000,0001.60,0001.32,0000.91,0000.65,-000.05,0000.14,0000.54,0000.86,-000.09,17.2,23.7,,00.0,0651.7,30.9
2021-10-22T01:54:00Z,00000200,01000000,0001.58,0001.22,0000.78,0000.77,0000.50,0000.08,0000.49,0000.35,0000.30,17.2,23.7,,00.0,0651.7,31.0
2021-10-22T01:55:00Z,00000200,01000000,0002.69,0001.22,0000.63,0000.50,0000.05,0000.27,0000.28,0000.15,0000.17,17.2,23.7,,00.0,0651.7,31.0
2021-10-22T01:56:00Z,00000200,01000000,0001.43,0001.04,0000.75,0000.38,0000.01,-000.14,0000.67,0000.68,0000.98,17.2,23.7,,00.0,0651.7,31.0
2021-10-22T01:57:00Z,00000200,41000000,,,,,,,0001.78,0001.60,0000.87,17.2,23.7,,00.0,0651.7,30.9
2021-10-22T01:58:00Z,00000200,61000000,,,,,,,-000.67,-000.61,-000.55,16.7,23.8,,00.0,0650.7,30.9
2021-10-22T01:59:00Z,00000200,21000000,,,,,,,-000.47,-000.52,-000.27,16.7,23.9,,00.0,0650.7,30.9
